Meteo Giornale » Osservazioni meteo Francia » Laval-Entrammes
ore: 21:00 - Osservazioni Meteo Laval-Entrammes
Lat. 48° 2' N Lon. 0° 44' W Alt. 97 metri s.l.m.
20 °C
Sereno
Temp. 24 Ore
14 °C
24 °C
Nord/NOvest
9.3 Km/h
Dew point 10 °C
Umidità 52 %
Visibilità 10 Km
Il sole sorge alle ore 07:21
Il sole tramonta alle ore 20:44
| Data e Ora | Cielo e Fenomeni | T °C | DP °C | Um. % | Pres. hPa | Vis. km | Vento km/h | |
|---|---|---|---|---|---|---|---|---|
| Oggi h: 21:00 | Sereno | 20 | 10 | 52 | 1021 | 10 | N/NO 9.3 | |
| Oggi h: 20:30 | Sereno | 21 | 10 | 49 | 1021 | 10 | N/NO 7.4 | |
| Oggi h: 20:00 | Sereno | 22 | 10 | 46 | 1021 | 10 | N 5.5 | |
| Oggi h: 19:30 | Sereno | 22 | 9 | 43 | 1021 | 10 | O/NO 9.3 | |
| Oggi h: 19:00 | Sereno | 24 | 10 | 41 | 1021 | 10 | O 13 | |
| Oggi h: 18:30 | Sereno | 23 | 9 | 40 | 1021 | 10 | O/NO 9.3 | |
| Oggi h: 18:00 | Sereno | 24 | 9 | 38 | 1021 | 10 | O 16.7 | |
| Oggi h: 17:30 | Sereno | 23 | 10 | 43 | 1021 | 10 | O/SO 9.3 | |
| Oggi h: 17:00 | Sereno | 24 | 10 | 41 | 1021 | 10 | N 9.3 | |
| Oggi h: 16:30 | Sereno | 24 | 10 | 41 | 1021 | 10 | S 9.3 | |
| Oggi h: 16:00 | Sereno | 24 | 10 | 41 | 1021 | 10 | O 13 | |
| Oggi h: 15:30 | Sereno | 23 | 10 | 43 | 1022 | 10 | O 9.3 | |
| Oggi h: 15:00 | Sereno | 22 | 10 | 46 | 1022 | 10 | O 11.1 | |
| Oggi h: 14:30 | Molto Nuvoloso | 23 | 11 | 46 | 1022 | 10 | O/NO 9.3 | |
| Oggi h: 14:00 | Coperto | 23 | 11 | 46 | 1022 | 10 | N/NO 13 | |
| Oggi h: 13:30 | Molto Nuvoloso | 23 | 11 | 46 | 1022 | 10 | S/SO 9.3 | |
| Oggi h: 13:00 | Molto Nuvoloso | 22 | 12 | 53 | 1023 | 10 | N 7.4 | |
| Oggi h: 12:30 | Molto Nuvoloso | 20 | 11 | 56 | 1023 | 10 | NO 7.4 | |
| Oggi h: 12:00 | Molto Nuvoloso | 20 | 12 | 59 | 1023 | 10 | N 5.5 | |
| Oggi h: 11:30 | Molto Nuvoloso | 20 | 12 | 59 | 1023 | 10 | N 5.5 | |
| Oggi h: 11:00 | Molto Nuvoloso | 20 | 12 | 59 | 1023 | 10 | N 7.4 | |
| Oggi h: 10:30 | Sereno | 19 | 13 | 68 | 1023 | 10 | N 3.7 | |
| Oggi h: 10:00 | Sereno | 18 | 13 | 72 | 1023 | 10 | N 3.7 | |
| Oggi h: 09:30 | Sereno | 17 | 13 | 77 | 1022 | 10 | N 3.7 | |
| Oggi h: 09:00 | Molto Nuvoloso | 16 | 13 | 82 | 1023 | 10 | N 3.7 | |
| Oggi h: 08:30 | Sereno | 15 | 13 | 87 | 1023 | 10 | N 3.7 | |
| Oggi h: 08:00 | Coperto | 14 | 13 | 93 | 1022 | 10 | N 5.5 | |
| Oggi h: 07:30 | Coperto | 14 | 12 | 87 | 1022 | 10 | N 1.8 | |
| Oggi h: 07:00 | Coperto | 14 | 13 | 93 | 1022 | 10 | N 3.7 | |
| Oggi h: 06:30 | Nuvoloso | 14 | 12 | 87 | 1022 | 10 | N 3.7 | |
| Oggi h: 06:00 | Sereno | 14 | 13 | 93 | 1022 | 10 | N 3.7 | |
| Oggi h: 05:30 | Coperto | 15 | 12 | 82 | 1022 | 10 | N 3.7 | |
| Oggi h: 05:00 | Coperto | 15 | 13 | 87 | 1022 | 10 | N 3.7 | |
| Oggi h: 04:30 | Coperto | 15 | 13 | 87 | 1022 | 10 | N 3.7 | |
| Oggi h: 04:00 | Poco Nuvoloso | 15 | 13 | 87 | 1022 | 10 | N 3.7 | |
| Oggi h: 03:30 | Poco Nuvoloso | 15 | 12 | 82 | 1022 | 10 | N 5.5 | |
| Oggi h: 03:00 | Coperto | 16 | 13 | 82 | 1022 | 10 | N 5.5 | |
| Oggi h: 02:30 | Coperto | 17 | 13 | 77 | 1022 | 10 | N 5.5 | |
| Oggi h: 02:00 | Coperto | 17 | 13 | 77 | 1022 | 10 | NO 7.4 | |
| Oggi h: 01:30 | Coperto | 17 | 13 | 77 | 1022 | 10 | N 5.5 | |
| Oggi h: 01:00 | Molto Nuvoloso | 17 | 13 | 77 | 1022 | 10 | N/NO 7.4 | |
| Oggi h: 00:30 | Coperto | 17 | 13 | 77 | 1022 | 10 | NO 7.4 | |
| Oggi h: 00:00 | Coperto | 17 | 13 | 77 | 1022 | 10 | N 5.5 | |
| Ieri h: 23:30 | Molto Nuvoloso | 17 | 13 | 77 | 1022 | 10 | NO 7.4 | |
| Ieri h: 23:00 | Coperto | 18 | 13 | 72 | 1022 | 10 | NO 11.1 | |
| Ieri h: 22:30 | Coperto | 18 | 12 | 67 | 1021 | 10 | NO 7.4 | |
| Ieri h: 22:00 | Coperto | 19 | 13 | 68 | 1021 | 10 | N/NO 7.4 | |



